|
NORAD ID: 25021 Int'l Code: 1997-065C
Perigee: 35,419.4 km
Apogee: 35,726.6 km
Inclination: 12.6 °
Period: 1,424.8 minutes
Semi major axis: 41944 km
Launch date: October 25, 1997
Source: United States (US)
Note: This is a ROCKET BODY
Two Line Element Set (TLE):
1 25021U 97065C 13165.68948250 -.00000155 00000-0 10000-3 0 4446
2 25021 012.5903 037.5513 0036622 022.3318 337.8124 01.01064322 58497
Source:
NASA's NSSDC Master Catalog entry for IABS R/B
|